Ephrata, WA

1:20 AM PDT on May 23, 2018 (GMT -0700)
Ephrata Municipal

Weather History for KEPH - March, 2013

Change the Weather History Date:

Thursday, March 7, 2013

  Actual Average Record
Temperature  
Mean Temperature 42 °F 40 °F  
Max Temperature 51 °F 51 °F 71 °F (2005)
Min Temperature 33 °F 30 °F 11 °F (1951)
Degree Days  
Heating Degree Days 23 25  
Month to date heating degree days 165 182  
Since 1 July heating degree days 4398 4755  
Cooling Degree Days 0 0  
Month to date cooling degree days 0 0  
Year to date cooling degree days 0 0  
Moisture  
Dew Point 33 °F    
Average Humidity 75    
Maximum Humidity 100    
Minimum Humidity 50    
Precipitation  
Precipitation 0.01 in 0.02 in 0.31 in (1986)
Month to date precipitation 0.45 0.18  
Year to date precipitation 0.80 1.83  
Sea Level Pressure  
Sea Level Pressure 30.00 in    
Wind  
Wind Speed 7 mph (SW)    
Max Wind Speed 14 mph    
Max Gust Speed 16 mph    
Visibility 10 miles    
Events      
T = Trace of Precipitation, MM = Missing Value Source: NWS Daily Summary

Daily Weather History Graph

Daily Weather History Graph

Search for Another Location

Airport or City:

Astronomy

Mar. 07, 2013 Rise Set
Actual Time 6:26 AM PST 5:52 PM PST
Civil Twilight 5:55 AM PST 6:23 PM PST
Nautical Twilight 5:20 AM PST 6:58 PM PST
Astronomical Twilight 4:44 AM PST 7:34 PM PST
Moon 3:44 AM PST (3/7) 1:32 PM PST (3/7)
Length of Visible Light 12h 27m
Length of Day
11h 26m
Waning Crescent, 19% of the Moon is Illuminated
Mar 7
Waning Crescent
Mar 11
New
Mar 19
First Quarter
Mar 27
Full
Apr 2
Last Quarter

Hourly Weather History & Observations

Time (PST) Temp. Windchill Dew Point Humidity Pressure Visibility Wind Dir Wind Speed Gust Speed Precip Events Conditions
12:53 AM 37.0 °F 31.0 °F 34.0 °F 89% 29.85 in 10.0 mi SSW 8.1 mph - 0.00 in   Overcast
1:53 AM 37.0 °F 32.4 °F 35.1 °F 93% 29.88 in 10.0 mi SSW 5.8 mph - N/A   Overcast
2:53 AM 36.0 °F - 34.0 °F 93% 29.89 in 10.0 mi Calm Calm - N/A   Overcast
3:53 AM 37.0 °F 29.8 °F 34.0 °F 89% 29.91 in 10.0 mi SSW 10.4 mph - N/A   Overcast
4:53 AM 37.9 °F 29.6 °F 34.0 °F 86% 29.93 in 10.0 mi SSW 13.8 mph - 0.01 in   Overcast
5:53 AM 37.9 °F 30.9 °F 33.1 °F 83% 29.95 in 10.0 mi SW 10.4 mph - N/A   Overcast
6:53 AM 36.0 °F 29.0 °F 33.1 °F 89% 29.97 in 10.0 mi SSW 9.2 mph - N/A   Overcast
7:53 AM 39.0 °F 34.8 °F 35.1 °F 86% 29.99 in 10.0 mi South 5.8 mph - N/A   Overcast
8:53 AM 42.1 °F 37.7 °F 35.1 °F 76% 30.01 in 10.0 mi SSW 6.9 mph - N/A   Overcast
9:53 AM 45.0 °F 40.1 °F 35.1 °F 68% 30.02 in 10.0 mi South 9.2 mph - N/A   Overcast
10:53 AM 48.0 °F - 36.0 °F 63% 30.03 in 10.0 mi SSW 9.2 mph - N/A   Overcast
11:53 AM 50.0 °F - 35.1 °F 57% 30.03 in 10.0 mi SW 8.1 mph - N/A   Clear
12:53 PM 50.0 °F - 33.1 °F 52% 30.02 in 10.0 mi Variable 6.9 mph - N/A   Clear
1:53 PM 50.0 °F - 32.0 °F 50% 30.01 in 10.0 mi SSE 5.8 mph - N/A   Clear
2:53 PM 50.0 °F - 33.1 °F 52% 30.02 in 10.0 mi South 5.8 mph - N/A   Overcast
3:53 PM 50.0 °F - 32.0 °F 50% 30.02 in 10.0 mi Calm Calm - N/A   Overcast
4:53 PM 50.0 °F - 34.0 °F 54% 30.02 in 10.0 mi ENE 3.5 mph - N/A   Scattered Clouds
5:53 PM 45.0 °F 42.6 °F 33.1 °F 63% 30.03 in 10.0 mi North 4.6 mph - N/A   Clear
6:53 PM 39.9 °F 35.8 °F 33.1 °F 77% 30.05 in 10.0 mi North 5.8 mph - N/A   Clear
7:53 PM 37.0 °F 32.4 °F 32.0 °F 82% 30.06 in 10.0 mi North 5.8 mph - N/A   Clear
8:53 PM 36.0 °F 31.1 °F 30.9 °F 82% 30.07 in 10.0 mi NNW 5.8 mph - N/A   Clear
9:53 PM 36.0 °F 31.1 °F 30.9 °F 82% 30.07 in 10.0 mi North 5.8 mph - N/A   Clear
10:53 PM 35.1 °F 30.1 °F 30.9 °F 85% 30.07 in 10.0 mi NNW 5.8 mph - N/A   Clear
11:53 PM 34.0 °F 28.8 °F 30.0 °F 85% 30.07 in 10.0 mi NNW 5.8 mph - N/A   Clear